Flag for Brazil Weather past 2 weeks in Pirassununga, São Paulo, Brazil

Now
61 °F

Sunny.


Feels Like: 61 °F
Forecast: 51 / 81 °F
Wind: 10 mph from South

Location: Pirassununga Airport

Current Time: Aug 29, 2014 at 10:05:42 AM

Latest Report: Aug 29, 2014 at 9:00 AM


Visibility: 10 mi

Pressure: 30.18 "Hg

Humidity: 72%

Dew point: 52 °F

Location of PirassunungaLocation

Historic Weather in Pirassununga — Graph

°F

Pirassununga temperature yesterday

Maximum temperature yesterday: 82 °F (at 3:00 PM)
Minimum temperature yesterday: 54 °F (at 6:00 AM)
Average temperature yesterday: 69 °F

Past Weeks' High & Low Weather Summary

 TemperatureHumidityPressure
High90 °F (Aug 25, 1:00 PM)100% (Aug 18, 6:00 AM)30.33 "Hg (Aug 18, 6:00 AM)
Low46 °F (Aug 20, 6:00 AM)17% (Aug 24, 2:00 PM)29.92 "Hg (Aug 25, 3:00 PM)
Average70 °F54%30.12 "Hg
* Reported Aug 14 8:00 AM — Aug 29 8:00 AM, Pirassununga, Weather by CustomWeather, © 2014

Note: Actual official high and low records may vary slightly from our data, if they occured in-between our weather recording intervals... More about our weather records

Advertising

Pirassununga weather history for previous 24 hours

 ConditionsComfort  
Time TempWeatherWind HumidityBarometerVisibility
8:00 AM
Aug 29
55 °FClear.5 mph88%30.15 "Hg5 mi
7:00 AM52 °FClear.6 mph94%30.15 "Hg4 mi
6:00 AM50 °FFog.3 mph100%30.12 "Hg3 mi
11:00 PM
Aug 28
63 °FClear.12 mph68%30.09 "Hg10 mi
10:00 PM64 °FClear.9 mph64%30.09 "Hg10 mi
9:00 PM66 °FClear.5 mph52%30.07 "Hg10 mi
8:00 PM66 °FClear.5 mph52%30.04 "Hg10 mi
7:00 PM72 °FClear.2 mph44%30.04 "Hg10 mi
6:00 PM75 °FClear.12 mph39%30.01 "Hg10 mi
5:00 PM79 °FClear.12 mph34%30.01 "Hg10 mi
4:00 PM82 °FSunny.12 mph32%29.98 "Hg10 mi
3:00 PM82 °FPassing clouds.9 mph32%29.98 "HgN/A
2:00 PM79 °FPassing clouds.5 mph34%30.01 "HgN/A
1:00 PM79 °FSunny.5 mph32%30.04 "Hg10 mi
12:00 PM73 °FSunny.7 mph44%30.07 "Hg10 mi
11:00 AM70 °FSunny.8 mph50%30.09 "Hg10 mi
10:00 AM66 °FSunny.13 mph60%30.12 "Hg10 mi
Weather by CustomWeather, © 2014

See weather overviewHow to use our weather pages